Flag for Rwanda Weather past 2 weeks in Butare, Rwanda

Now
72 °F

Mild.


Feels Like: 76 °F
Forecast: 54 / 82 °F
Wind: No wind

Location: Kigali Airport

Current Time: Jan 28, 2015 at 12:06:39 AM

Latest Report: Jan 27, 2015 at 11:30 PM


Visibility: N/A

Pressure: 30.09 "Hg

Humidity: 61%

Dew point: 57 °F

Location of ButareLocation

Historic Weather in Butare — Graph

°F

Butare temperature yesterday

Maximum temperature yesterday: 88 °F (at 3:30 PM)
Minimum temperature yesterday: 61 °F (at 6:30 AM)
Average temperature yesterday: 74 °F

Past Weeks' High & Low Weather Summary

 TemperatureHumidityPressure
High88 °F (Jan 14, 1:00 PM)100% (Jan 13, 1:30 AM)30.24 "Hg (Jan 13, 1:30 AM)
Low59 °F (Jan 23, 3:30 AM)29% (Jan 17, 2:30 PM)29.98 "Hg (Jan 17, 3:00 PM)
Average71 °F76%30.10 "Hg
* Reported Jan 13 12:30 AM — Jan 27 11:00 PM, Butare, Weather by CustomWeather, © 2014

Note: Actual official high and low records may vary slightly from our data, if they occured in-between our weather recording intervals... More about our weather records

Advertising

Butare weather history for previous 24 hours

 ConditionsComfort  
Time TempWeatherWind HumidityBarometerVisibility
11:00 PM
Jan 27
73 °FMild.No wind57%30.09 "HgN/A
10:30 PM73 °FMild.3 mph61%30.07 "HgN/A
10:00 PM75 °FMild.3 mph57%30.07 "HgN/A
9:30 PM77 °FWarm.5 mph51%30.07 "HgN/A
9:00 PM75 °FMild.3 mph47%30.07 "HgN/A
8:30 PM77 °FWarm.No wind47%30.04 "HgN/A
8:00 PM77 °FWarm.3 mph47%30.04 "HgN/A
7:30 PM77 °FWarm.3 mph47%30.01 "HgN/A
7:00 PM79 °FWarm.3 mph45%30.01 "HgN/A
6:30 PM81 °FWarm.3 mph42%30.01 "HgN/A
6:00 PM84 °FPleasantly warm.3 mph35%30.01 "HgN/A
5:30 PM86 °FPleasantly warm.6 mph33%30.01 "HgN/A
5:00 PM86 °FPleasantly warm.6 mph33%29.98 "HgN/A
4:30 PM86 °FPleasantly warm.6 mph33%29.98 "HgN/A
4:00 PM88 °FPleasantly warm.6 mph29%29.98 "HgN/A
3:30 PM88 °FPleasantly warm.3 mph33%30.01 "HgN/A
3:00 PM86 °FPleasantly warm.10 mph35%30.01 "HgN/A
2:00 PM86 °FPleasantly warm.8 mph33%30.04 "HgN/A
1:30 PM86 °FWarm.7 mph40%30.07 "HgN/A
1:00 PM84 °FPleasantly warm.5 mph37%30.07 "HgN/A
12:30 PM86 °FPleasantly warm.3 mph38%30.09 "HgN/A
11:30 AM81 °FWarm.7 mph51%30.12 "HgN/A
11:00 AM81 °FWarm.3 mph54%30.12 "HgN/A
10:00 AM79 °FWarm.3 mph61%30.15 "HgN/A
9:30 AM77 °FWarm.3 mph69%30.15 "HgN/A
9:00 AM73 °FMild.No wind78%30.15 "HgN/A
8:30 AM72 °FMild.No wind83%30.15 "HgN/A
8:00 AM68 °FMild.No wind94%30.15 "HgN/A
7:30 AM64 °FPassing clouds.No wind100%30.12 "Hg5 mi
7:00 AM63 °FPassing clouds.No wind100%30.12 "Hg5 mi
6:30 AM61 °FPassing clouds.No wind100%30.12 "Hg5 mi
6:00 AM63 °FPassing clouds.No wind100%30.12 "Hg5 mi
5:30 AM63 °FPassing clouds.No wind100%30.12 "Hg5 mi
5:00 AM63 °FPassing clouds.No wind100%30.12 "Hg5 mi
4:30 AM63 °FPassing clouds.No wind100%30.12 "Hg5 mi
4:00 AM63 °FPassing clouds.No wind100%30.09 "Hg5 mi
3:30 AM64 °FPassing clouds.No wind100%30.09 "Hg5 mi
3:00 AM64 °FPassing clouds.No wind100%30.09 "HgN/A
2:30 AM64 °FPassing clouds.No wind100%30.09 "HgN/A
2:00 AM64 °FPassing clouds.3 mph100%30.12 "HgN/A
1:30 AM66 °FPassing clouds.No wind94%30.12 "HgN/A
1:00 AM66 °FPassing clouds.No wind100%30.15 "HgN/A
12:30 AM64 °FPassing clouds.No wind100%30.15 "HgN/A
Weather by CustomWeather, © 2014

See weather overviewHow to use our weather pages